| time (UTC) | temp F | wind direction | speed knots | gust knots | rain 1hr in | rain 24hr in | rain mn in | humidity % | barometer mb |
| 20260504030707 | 52 | 124 | 0.9 | 1.7 | 0.00 | 0.00 | 0.00 | 60 | 978.6 |
| 20260504030206 | 52 | 160 | 0.9 | 1.7 | 0.00 | 0.00 | 0.00 | 60 | 978.6 |
| 20260504024706 | 53 | 160 | 0.9 | 6.1 | 0.00 | 0.00 | 0.00 | 60 | 978.8 |
| 20260504024206 | 53 | 149 | 0.9 | 1.7 | 0.00 | 0.00 | 0.00 | 59 | 978.8 |
| 20260504023706 | 53 | 237 | 0.9 | 2.6 | 0.00 | 0.00 | 0.00 | 59 | 978.8 |
| 20260504023206 | 53 | 101 | 1.7 | 2.6 | 0.00 | 0.00 | 0.00 | 57 | 978.9 |
| 20260504021706 | 53 | 231 | 2.6 | 4.3 | 0.00 | 0.00 | 0.00 | 55 | 978.8 |
| 20260504021206 | 53 | 242 | 1.7 | 2.6 | 0.00 | 0.00 | 0.00 | 56 | 978.8 |
| 20260504020706 | 53 | 243 | 2.6 | 4.3 | 0.00 | 0.00 | 0.00 | 55 | 978.9 |
| 20260504020206 | 53 | 224 | 1.7 | 4.3 | 0.00 | 0.00 | 0.00 | 56 | 978.9 |
| 20260504014706 | 53 | 229 | 1.7 | 4.3 | 0.00 | 0.00 | 0.00 | 56 | 978.7 |
| 20260504014206 | 53 | 230 | 2.6 | 6.1 | 0.00 | 0.00 | 0.00 | 54 | 978.7 |
| 20260504013706 | 53 | 227 | 4.3 | 7.8 | 0.00 | 0.00 | 0.00 | 58 | 978.6 |
| 20260504013206 | 53 | 166 | 0.9 | 2.6 | 0.00 | 0.00 | 0.00 | 53 | 978.3 |
| 20260504011706 | 53 | 252 | 0.9 | 2.6 | 0.00 | 0.00 | 0.00 | 50 | 978.3 |
| 20260504011206 | 54 | 5 | 0.9 | 2.6 | 0.00 | 0.00 | 0.00 | 51 | 978.3 |
| 20260504010706 | 54 | 301 | 0.9 | 2.6 | 0.00 | 0.00 | 0.00 | 50 | 978.3 |
| 20260504010206 | 54 | 347 | 0.9 | 2.6 | 0.00 | 0.00 | 0.00 | 50 | 978.3 |
| 20260504004705 | 54 | 8 | 0.9 | 1.7 | 0.00 | 0.00 | 0.00 | 50 | 978.3 |
| 20260504004206 | 54 | 318 | 0.9 | 1.7 | 0.00 | 0.00 | 0.00 | 50 | 978.3 |
| 20260504003706 | 54 | 326 | 0.0 | 2.6 | 0.00 | 0.00 | 0.00 | 50 | 978.2 |
| 20260504003206 | 54 | 357 | 0.9 | 2.6 | 0.00 | 0.00 | 0.00 | 49 | 978.2 |
| 20260504001706 | 55 | 9 | 0.9 | 2.6 | 0.00 | 0.00 | 0.00 | 49 | 978.2 |
| 20260504001206 | 55 | 264 | 0.0 | 0.9 | 0.00 | 0.00 | 0.00 | 51 | 978.2 |
| 20260504000706 | 55 | 241 | 0.9 | 1.7 | 0.00 | 0.00 | 0.00 | 50 | 978.2 |
| 20260504000206 | 55 | 35 | 0.9 | 1.7 | 0.00 | 0.00 | 0.00 | 50 | 978.2 |
| 20260503234706 | 56 | 195 | 0.9 | 1.7 | 0.00 | 0.00 | 0.00 | 51 | 978.4 |
| 20260503233706 | 56 | 210 | 1.7 | 5.2 | 0.00 | 0.00 | 0.00 | 48 | 978.4 |
| 20260503233206 | 56 | 155 | 1.7 | 2.6 | 0.00 | 0.00 | 0.00 | 48 | 978.5 |
| 20260503231206 | 57 | 153 | 3.5 | 6.1 | 0.00 | 0.00 | 0.00 | 46 | 978.6 |
| 20260503230206 | 57 | 148 | 1.7 | 7.0 | 0.00 | 0.00 | 0.00 | 48 | 978.6 |
| 20260503224706 | 57 | 196 | 3.5 | 6.1 | 0.00 | 0.00 | 0.00 | 45 | 978.6 |
| 20260503223705 | 57 | 208 | 2.6 | 6.1 | 0.00 | 0.00 | 0.00 | 46 | 978.7 |
| 20260503223206 | 57 | 236 | 2.6 | 6.1 | 0.00 | 0.00 | 0.00 | 46 | 978.8 |
| 20260503221220 | 58 | 234 | 1.7 | 1.7 | 0.00 | 0.00 | 0.00 | 46 | 978.8 |
| 20260503220722 | 58 | 234 | 1.7 | 1.7 | 0.00 | 0.00 | 0.00 | 46 | 978.8 |
| 20260503220221 | 58 | 234 | 1.7 | 1.7 | 0.00 | 0.00 | 0.00 | 46 | 978.8 |
| 20260503214721 | 58 | 234 | 1.7 | 1.7 | 0.00 | 0.00 | 0.00 | 46 | 978.8 |
| 20260503214220 | 58 | 234 | 1.7 | 1.7 | 0.00 | 0.00 | 0.00 | 47 | 978.8 |
| 20260503213721 | 58 | 234 | 1.7 | 1.7 | 0.00 | 0.00 | 0.00 | 47 | 978.8 |
| 20260503213223 | 58 | 234 | 1.7 | 1.7 | 0.00 | 0.00 | 0.00 | 47 | 978.9 |
| 20260503050705 | 37 | 234 | 1.7 | 1.7 | 0.00 | 0.02 | 0.00 | 95 | 983.0 |
| 20260503050206 | 37 | 234 | 1.7 | 1.7 | 0.00 | 0.02 | 0.00 | 95 | 983.0 |
| 20260503044705 | 37 | 234 | 1.7 | 1.7 | 0.00 | 0.02 | 0.00 | 95 | 983.0 |
| 20260503044205 | 37 | 234 | 1.7 | 1.7 | 0.00 | 0.02 | 0.00 | 95 | 983.0 |
| 20260503043705 | 37 | 234 | 1.7 | 1.7 | 0.00 | 0.02 | 0.00 | 94 | 983.0 |
| 20260503043205 | 37 | 234 | 1.7 | 1.7 | 0.00 | 0.02 | 0.00 | 94 | 983.0 |
| 20260503041705 | 37 | 234 | 1.7 | 1.7 | 0.00 | 0.02 | 0.00 | 94 | 983.0 |
| 20260503041205 | 37 | 234 | 1.7 | 1.7 | 0.00 | 0.02 | 0.00 | 93 | 983.1 |
| 20260503040205 | 37 | 234 | 1.7 | 1.7 | 0.00 | 0.02 | 0.00 | 93 | 983.0 |
| 20260503033706 | 38 | 234 | 1.7 | 1.7 | 0.00 | 0.02 | 0.01 | 92 | 983.1 |
| 20260503033205 | 38 | 234 | 1.7 | 1.7 | 0.00 | 0.02 | 0.01 | 91 | 983.1 |
| 20260503031205 | 38 | 234 | 1.7 | 1.7 | 0.00 | 0.02 | 0.01 | 89 | 983.2 |